GW4603 Weather Reports


time (UTC)temp
C
wind
direction
speed
KPH
gust
KPH
rain 1hr
cm
rain 24hr
cm
rain mn
cm
humidity
%
barometer
mb
20260504081702 4 246 0.0 0.0 0.00 0.00 0.00 86 1016.3
20260504081158 4 28 0.0 0.0 0.00 0.00 0.00 85 1016.2
20260504080655 4 266 0.0 0.0 0.00 0.00 0.00 85 1016.4
20260504080152 5 120 1.6 1.6 0.00 0.00 0.00 81 1016.4
20260504070119 5 276 0.0 0.0 0.00 0.00 0.00 83 1016.5
20260504050508 5 314 0.0 0.0 0.00 0.00 0.00 79 1017.2
20260504050005 5 315 0.0 0.0 0.00 0.00 0.00 78 1017.1
20260504045501 5 315 0.0 0.0 0.00 0.00 0.00 78 1017.2
20260504044957 5 314 0.0 0.0 0.00 0.00 0.00 78 1016.7
20260504044454 5 314 0.0 0.0 0.00 0.00 0.00 77 1017.0
20260504043951 5 314 0.0 0.0 0.00 0.00 0.00 77 1017.0
20260504043448 5 314 0.0 0.0 0.00 0.00 0.00 76 1016.8
20260504042946 5 314 0.0 0.0 0.00 0.00 0.00 77 1017.1
20260504042442 5 315 0.0 0.0 0.00 0.00 0.00 77 1016.8
20260504041939 5 315 0.0 0.0 0.00 0.00 0.00 77 1017.0
20260504041435 5 315 0.0 0.0 0.00 0.00 0.00 76 1017.0
20260504040931 5 314 0.0 0.0 0.00 0.00 0.00 76 1017.1
20260504040429 5 314 0.0 0.0 0.00 0.00 0.00 77 1017.0
20260504035925 5 314 0.0 0.0 0.00 0.00 0.00 76 1017.0
20260504035423 5 314 0.0 0.0 0.00 0.00 0.00 76 1016.8
20260504034919 5 315 0.0 0.0 0.00 0.00 0.00 75 1017.0
20260504034417 5 314 0.0 0.0 0.00 0.00 0.00 74 1017.0
20260504033913 5 314 0.0 0.0 0.00 0.00 0.00 73 1017.0
20260504033412 5 315 0.0 0.0 0.00 0.00 0.00 73 1016.7
20260504032908 5 315 0.0 0.0 0.00 0.00 0.00 72 1016.7
20260504032405 5 315 0.0 0.0 0.00 0.00 0.00 72 1016.8
20260504031901 5 315 0.0 0.0 0.00 0.00 0.00 72 1017.0
20260504031359 5 315 0.0 0.0 0.00 0.00 0.00 71 1016.6
20260504030855 5 315 0.0 0.0 0.00 0.00 0.00 71 1016.5
20260504030353 5 315 0.0 0.0 0.00 0.00 0.00 74 1016.7
20260504025848 5 315 0.0 0.0 0.00 0.00 0.00 71 1016.6
20260504025345 5 315 0.0 0.0 0.00 0.00 0.00 71 1016.7
20260504024842 5 315 0.0 0.0 0.00 0.00 0.00 70 1016.7
20260504024338 5 315 0.0 0.0 0.00 0.00 0.00 71 1016.6
20260504023836 5 315 0.0 0.0 0.00 0.00 0.00 71 1016.7
20260504023333 5 315 0.0 0.0 0.00 0.00 0.00 71 1016.7
20260504022828 5 315 0.0 0.0 0.00 0.00 0.00 69 1016.7
20260504022325 5 315 0.0 0.0 0.00 0.00 0.00 71 1016.7
20260504021821 5 315 0.0 0.0 0.00 0.00 0.00 71 1016.8
20260504021319 5 315 0.0 0.0 0.00 0.00 0.00 69 1016.6
20260504020816 5 315 0.0 0.0 0.00 0.00 0.00 73 1016.6
20260504020313 5 315 0.0 0.0 0.00 0.00 0.00 72 1016.6
20260504015809 5 315 0.0 0.0 0.00 0.00 0.00 72 1016.7
20260504015305 5 315 0.0 0.0 0.00 0.00 0.00 71 1016.6
20260504014801 5 315 0.0 0.0 0.00 0.00 0.00 71 1016.7
20260504014257 5 315 0.0 0.0 0.00 0.00 0.00 71 1016.6
20260504013755 5 315 0.0 0.0 0.00 0.00 0.00 73 1016.5
20260504013253 5 315 0.0 0.0 0.00 0.00 0.00 68 1016.4
20260504012749 5 315 0.0 0.0 0.00 0.00 0.00 68 1016.3
20260504012247 6 315 0.0 0.0 0.00 0.00 0.00 70 1016.2
20260504011744 6 315 0.0 0.0 0.00 0.00 0.00 66 1016.3
20260504011240 6 315 0.0 0.0 0.00 0.00 0.00 65 1016.5
20260504010736 6 315 0.0 0.0 0.00 0.00 0.00 67 1016.4
20260504010232 6 315 0.0 0.0 0.00 0.00 0.00 60 1016.2
20260504005729 6 315 0.0 0.0 0.00 0.00 0.00 60 1016.1
20260504005226 7 315 0.0 0.0 0.00 0.00 0.00 63 1016.0
20260504004724 7 315 0.0 0.0 0.00 0.00 0.00 65 1015.9
20260504004220 7 315 0.0 0.0 0.00 0.00 0.00 60 1015.9
20260504003717 7 315 0.0 0.0 0.00 0.00 0.00 63 1016.2
20260504003214 7 315 0.0 0.0 0.00 0.00 0.00 62 1016.0
20260504002711 8 315 0.0 0.0 0.00 0.00 0.00 57 1015.9
20260504002208 8 315 0.0 0.0 0.00 0.00 0.00 57 1016.0
20260504001706 8 315 0.0 0.0 0.00 0.00 0.00 56 1015.8
20260504001202 8 315 0.0 0.0 0.00 0.00 0.00 51 1016.0
20260504000659 9 315 0.0 0.0 0.00 0.00 0.00 53 1016.1
20260504000156 10 315 0.0 0.0 0.00 0.00 0.00 51 1015.9
20260503235654 10 310 0.0 0.0 0.00 0.00 0.00 48 1015.9
20260503235151 11 268 0.0 0.0 0.00 0.00 0.00 46 1015.9
20260503234649 11 273 0.0 0.0 0.00 0.00 0.00 43 1016.0
20260503234147 12 6 0.0 0.0 0.00 0.00 0.00 40 1016.0
20260503233643 12 309 0.0 4.8 0.00 0.00 0.00 36 1016.0
20260503233139 12 307 3.2 6.4 0.00 0.00 0.00 36 1016.1
20260503232636 12 310 3.2 3.2 0.00 0.00 0.00 35 1016.2
20260503232133 12 322 0.0 1.6 0.00 0.00 0.00 36 1016.1
20260503231631 12 274 0.0 3.2 0.00 0.00 0.00 35 1016.0
20260503231127 12 334 0.0 6.4 0.00 0.00 0.00 33 1016.1
20260503230625 12 255 0.0 4.8 0.00 0.00 0.00 34 1016.0
20260503230122 12 242 0.0 4.8 0.00 0.00 0.00 35 1016.1
20260503225619 12 320 1.6 6.4 0.00 0.00 0.00 33 1016.4
20260503225118 12 299 8.0 12.9 0.00 0.00 0.00 32 1016.4
20260503224616 12 177 4.8 11.3 0.00 0.00 0.00 32 1016.4
20260503224114 12 317 0.0 3.2 0.00 0.00 0.00 32 1016.4
20260503223612 12 319 8.0 11.3 0.00 0.00 0.00 32 1016.7
20260503223107 12 272 4.8 9.7 0.00 0.00 0.00 34 1016.3
20260503222606 12 176 3.2 11.3 0.00 0.00 0.00 32 1016.4
20260503222103 13 267 3.2 6.4 0.00 0.00 0.00 33 1016.4
20260503221601 13 221 4.8 6.4 0.00 0.00 0.00 38 1016.5
20260503221059 13 301 1.6 9.7 0.00 0.00 0.00 33 1016.3
20260503220554 13 315 8.0 11.3 0.00 0.00 0.00 33 1016.1
20260503220052 13 326 3.2 6.4 0.00 0.00 0.00 33 1016.2
20260503215549 13 324 0.0 12.9 0.00 0.00 0.00 32 1016.3
20260503215046 14 108 0.0 3.2 0.00 0.00 0.00 34 1016.1
20260503214544 13 338 4.8 9.7 0.00 0.00 0.00 31 1016.2
20260503214040 13 333 6.4 9.7 0.00 0.00 0.00 31 1016.2
20260503213539 13 251 8.0 16.1 0.00 0.00 0.00 33 1016.3
20260503213035 13 294 9.7 11.3 0.00 0.00 0.00 31 1016.4
20260503212532 13 308 8.0 9.7 0.00 0.00 0.00 31 1016.5
20260503212030 13 351 1.6 4.8 0.00 0.00 0.00 32 1016.5
20260503211526 13 313 3.2 12.9 0.00 0.00 0.00 31 1016.6
20260503211022 14 287 1.6 6.4 0.00 0.00 0.00 30 1016.5
20260503210519 13 351 0.0 4.8 0.00 0.00 0.00 33 1016.4
20260503210015 13 313 9.7 11.3 0.00 0.00 0.00 30 1016.6
20260503205512 13 328 1.6 6.4 0.00 0.00 0.00 35 1016.7
20260503205008 13 248 3.2 11.3 0.00 0.00 0.00 36 1016.7
20260503204505 14 16 0.0 4.8 0.00 0.00 0.00 32 1016.4
20260503204001 13 302 9.7 11.3 0.00 0.00 0.00 32 1016.5
20260503203459 13 250 3.2 12.9 0.00 0.00 0.00 37 1016.6
20260503202955 13 119 8.0 9.7 0.00 0.00 0.00 30 1017.1
20260503202454 13 147 4.8 14.5 0.00 0.00 0.00 31 1016.8
20260503201952 13 298 6.4 6.4 0.00 0.00 0.00 31 1017.0
20260503201449 13 302 3.2 11.3 0.00 0.00 0.00 35 1017.0
20260503200947 13 192 3.2 12.9 0.00 0.00 0.00 32 1017.1
20260503200443 13 318 1.6 6.4 0.00 0.00 0.00 35 1017.1
20260503195940 13 153 8.0 9.7 0.00 0.00 0.00 32 1017.3
20260503195437 13 110 1.6 11.3 0.00 0.00 0.00 32 1017.4
20260503194933 13 316 3.2 9.7 0.00 0.00 0.00 35 1017.6
20260503194430 14 242 8.0 9.7 0.00 0.00 0.00 33 1017.7
20260503193926 13 297 6.4 9.7 0.00 0.00 0.00 35 1017.6
20260503193421 13 174 4.8 14.5 0.00 0.00 0.00 32 1017.8
20260503192917 12 301 1.6 6.4 0.00 0.00 0.00 36 1017.8
20260503192414 12 155 8.0 20.9 0.00 0.00 0.00 34 1017.7
20260503191909 12 326 3.2 14.5 0.00 0.00 0.00 35 1017.8
20260503191408 12 44 8.0 12.9 0.00 0.00 0.00 34 1018.0
20260503190903 12 327 1.6 6.4 0.00 0.00 0.00 34 1018.1
20260503190401 12 291 14.5 14.5 0.00 0.00 0.00 35 1018.2
20260503185857 13 301 14.5 16.1 0.00 0.00 0.00 34 1018.1
20260503185354 12 214 3.2 4.8 0.00 0.00 0.00 34 1018.4
20260503184854 12 358 3.2 12.9 0.00 0.00 0.00 33 1018.1
20260503184350 12 45 4.8 9.7 0.00 0.00 0.00 35 1018.5
20260503183845 12 304 16.1 17.7 0.00 0.00 0.00 35 1018.6
20260503183343 12 319 3.2 6.4 0.00 0.00 0.00 34 1018.5
20260503182840 13 39 6.4 9.7 0.00 0.00 0.00 38 1018.5
20260503182340 12 70 1.6 11.3 0.00 0.00 0.00 36 1018.7
20260503181836 12 225 3.2 4.8 0.00 0.00 0.00 46 1018.5
20260503181333 11 143 4.8 4.8 0.00 0.00 0.00 35 1018.5
20260503180829 11 304 14.5 17.7 0.00 0.00 0.00 36 1018.9
20260503180328 11 266 3.2 14.5 0.00 0.00 0.00 37 1018.7
20260503175824 11 144 8.0 9.7 0.00 0.00 0.00 36 1018.7
20260503175322 11 316 3.2 9.7 0.00 0.00 0.00 38 1018.7
20260503174817 12 9 3.2 11.3 0.00 0.00 0.00 37 1018.9
20260503174316 10 236 4.8 6.4 0.00 0.00 0.00 43 1019.0
20260503173811 11 318 1.6 14.5 0.00 0.00 0.00 36 1019.2
20260503173307 11 335 0.0 4.8 0.00 0.00 0.00 38 1019.0
20260503172804 11 327 6.4 9.7 0.00 0.00 0.00 37 1019.3
20260503172301 10 303 12.9 12.9 0.00 0.00 0.00 36 1019.3
20260503171757 10 293 4.8 9.7 0.00 0.00 0.00 37 1019.3
20260503171254 10 263 6.4 9.7 0.00 0.00 0.00 38 1019.4
20260503170751 10 174 3.2 12.9 0.00 0.00 0.00 39 1019.7
20260503170248 10 317 8.0 9.7 0.00 0.00 0.00 39 1019.5
20260503160210 8 288 12.9 16.1 0.00 0.00 0.00 40 1020.2
20260503150641 7 308 3.2 6.4 0.00 0.00 0.00 40 1020.4
20260503150136 8 71 8.0 9.7 0.00 0.00 0.00 39 1020.1
20260503131030 5 285 4.8 6.4 0.00 0.00 0.00 56 1020.4
20260503130527 5 16 1.6 3.2 0.00 0.00 0.00 61 1020.3
20260503110418 -2 10 0.0 0.0 0.00 0.00 0.00 97 1018.7